TimeHST,TemperatureF,Dew PointF,Humidity,Sea Level PressureIn,VisibilityMPH,Wind Direction,Wind SpeedMPH,Gust SpeedMPH,PrecipitationIn,Events,Conditions,WindDirDegrees,DateUTC
12:00 AM,66.0,63.0,90,30.15,10.0,WSW,8.1,-,0.01,,Overcast,240,2013-03-06 10:00:00
12:25 AM,64.9,62.1,90,30.15,10.0,Calm,Calm,-,0.01,,Overcast,0,2013-03-06 10:25:00
12:39 AM,64.9,62.1,90,30.15,10.0,WSW,6.9,-,0.01,,Mostly Cloudy,250,2013-03-06 10:39:00
12:53 AM,64.9,62.1,90,30.14,10.0,West,8.1,-,0.01,,Mostly Cloudy,260,2013-03-06 10:53:00
1:53 AM,64.9,61.0,87,30.12,10.0,West,8.1,-,0.00,Rain,Light Rain,260,2013-03-06 11:53:00
2:53 AM,64.0,60.1,87,30.10,10.0,SW,3.5,-,0.00,,Mostly Cloudy,220,2013-03-06 12:53:00
3:19 AM,64.9,60.1,84,30.10,10.0,WSW,4.6,-,N/A,,Overcast,240,2013-03-06 13:19:00
3:51 AM,64.4,60.8,88,30.11,10.0,Calm,Calm,-,0.00,,Overcast,0,2013-03-06 13:51:00
3:53 AM,64.9,60.1,84,30.10,10.0,Calm,Calm,-,0.00,Rain,Light Rain,0,2013-03-06 13:53:00
4:53 AM,64.0,61.0,90,30.09,10.0,SW,5.8,-,0.00,,Scattered Clouds,230,2013-03-06 14:53:00
5:53 AM,64.0,61.0,90,30.12,10.0,WSW,3.5,-,0.02,,Overcast,240,2013-03-06 15:53:00
6:48 AM,64.4,60.8,88,30.13,10.0,SW,5.8,-,N/A,,Mostly Cloudy,230,2013-03-06 16:48:00
6:53 AM,64.0,61.0,90,30.13,10.0,WSW,6.9,-,N/A,,Mostly Cloudy,240,2013-03-06 16:53:00
7:06 AM,64.9,62.1,90,30.14,10.0,SW,6.9,-,N/A,,Mostly Cloudy,220,2013-03-06 17:06:00
7:13 AM,64.9,61.0,87,30.14,10.0,WSW,5.8,-,N/A,,Mostly Cloudy,240,2013-03-06 17:13:00
7:37 AM,66.0,62.1,87,30.15,10.0,WSW,5.8,-,N/A,,Mostly Cloudy,240,2013-03-06 17:37:00
7:44 AM,66.9,62.1,84,30.15,10.0,West,4.6,-,N/A,,Mostly Cloudy,270,2013-03-06 17:44:00
7:53 AM,66.9,62.1,84,30.15,10.0,NNW,4.6,-,N/A,,Mostly Cloudy,330,2013-03-06 17:53:00
8:53 AM,68.0,64.0,87,30.16,10.0,Calm,Calm,-,0.00,Rain,Light Rain,0,2013-03-06 18:53:00
9:53 AM,70.0,64.0,81,30.17,10.0,SW,5.8,-,0.01,,Mostly Cloudy,230,2013-03-06 19:53:00
10:53 AM,71.1,62.1,73,30.16,4.0,Calm,Calm,-,0.00,Rain,Rain,0,2013-03-06 20:53:00
11:00 AM,71.1,64.0,78,30.16,10.0,NW,4.6,-,0.01,Rain,Light Rain,310,2013-03-06 21:00:00
11:53 AM,72.0,64.9,78,30.13,10.0,Calm,Calm,-,0.02,Rain,Light Rain,0,2013-03-06 21:53:00
12:53 PM,77.0,66.0,69,30.11,10.0,ESE,9.2,-,0.04,,Mostly Cloudy,120,2013-03-06 22:53:00
1:53 PM,75.9,61.0,60,30.08,10.0,East,6.9,-,N/A,,Mostly Cloudy,100,2013-03-06 23:53:00
2:53 PM,73.9,63.0,68,30.06,10.0,East,9.2,-,N/A,,Mostly Cloudy,100,2013-03-07 00:53:00
3:53 PM,72.0,63.0,73,30.07,10.0,ENE,9.2,-,N/A,,Overcast,70,2013-03-07 01:53:00
4:53 PM,72.0,63.0,73,30.07,10.0,ENE,6.9,-,N/A,,Overcast,60,2013-03-07 02:53:00
5:53 PM,68.0,63.0,84,30.09,10.0,ENE,5.8,-,N/A,,Overcast,70,2013-03-07 03:53:00
6:53 PM,62.1,62.1,100,30.10,10.0,SW,4.6,-,N/A,,Scattered Clouds,220,2013-03-07 04:53:00
7:53 PM,60.1,60.1,100,30.12,10.0,WSW,5.8,-,N/A,,Overcast,240,2013-03-07 05:53:00
8:53 PM,61.0,61.0,100,30.13,10.0,Calm,Calm,-,0.00,Rain,Light Rain,0,2013-03-07 06:53:00
9:03 PM,57.0,57.0,100,30.13,2.5,Calm,Calm,-,0.00,Rain,Heavy Rain,0,2013-03-07 07:03:00
9:11 PM,59.0,-9999,N/A,30.14,1.2,Calm,Calm,-,0.15,Rain,Heavy Rain,0,2013-03-07 07:11:00
9:20 PM,55.9,-9999,N/A,30.13,3.0,West,5.8,-,0.28,Rain,Rain,260,2013-03-07 07:20:00
9:45 PM,53.1,-9999,N/A,30.14,10.0,SW,4.6,-,0.30,,Overcast,230,2013-03-07 07:45:00
9:53 PM,53.1,-9999,N/A,30.14,10.0,SW,3.5,-,0.30,,Overcast,230,2013-03-07 07:53:00
10:17 PM,59.0,-9999,N/A,30.14,10.0,West,5.8,-,N/A,,Overcast,260,2013-03-07 08:17:00
10:53 PM,55.9,-9999,N/A,30.14,10.0,WSW,4.6,-,N/A,,Overcast,240,2013-03-07 08:53:00
11:03 PM,54.0,-9999,N/A,30.13,10.0,WSW,6.9,-,N/A,,Overcast,240,2013-03-07 09:03:00
11:18 PM,55.9,-9999,N/A,30.13,10.0,Calm,Calm,-,N/A,,Overcast,0,2013-03-07 09:18:00
11:53 PM,66.9,64.0,90,30.12,9.0,South,3.5,-,0.00,Rain,Light Rain,170,2013-03-07 09:53:00